| time (UTC) | temp F | wind direction | speed MPH | gust MPH | rain 1hr in | rain 24hr in | rain mn in | humidity % | barometer mb |
| 20260507024548 | 58 | 46 | 6.0 | 10.0 | 0.00 | 0.00 | 0.00 | 26 | 1017.1 |
| 20260507023046 | 59 | 59 | 7.0 | 13.0 | 0.00 | 0.00 | 0.00 | 25 | 1016.9 |
| 20260507021547 | 61 | 59 | 8.0 | 12.0 | 0.00 | 0.00 | 0.00 | 25 | 1016.6 |
| 20260507020053 | 63 | 41 | 9.0 | 16.0 | 0.00 | 0.00 | 0.00 | 23 | 1016.6 |
| 20260507014552 | 64 | 68 | 10.0 | 16.0 | 0.00 | 0.00 | 0.00 | 22 | 1016.6 |
| 20260507013043 | 65 | 53 | 9.0 | 17.0 | 0.00 | 0.00 | 0.00 | 21 | 1016.5 |
| 20260507011553 | 66 | 29 | 8.0 | 17.0 | 0.00 | 0.00 | 0.00 | 23 | 1016.3 |
| 20260507010041 | 66 | 38 | 8.0 | 18.0 | 0.00 | 0.00 | 0.00 | 23 | 1016.2 |
| 20260507004541 | 67 | 39 | 7.0 | 18.0 | 0.00 | 0.00 | 0.00 | 23 | 1016.1 |
| 20260507003039 | 67 | 70 | 8.0 | 18.0 | 0.00 | 0.00 | 0.00 | 23 | 1016.1 |
| 20260507001549 | 67 | 46 | 8.0 | 17.0 | 0.00 | 0.00 | 0.00 | 23 | 1016.0 |
| 20260507000039 | 67 | 57 | 9.0 | 19.0 | 0.00 | 0.00 | 0.00 | 22 | 1015.7 |
| 20260506234543 | 67 | 51 | 10.0 | 20.0 | 0.00 | 0.00 | 0.00 | 23 | 1015.8 |
| 20260506233034 | 68 | 24 | 8.0 | 17.0 | 0.00 | 0.00 | 0.00 | 23 | 1015.7 |
| 20260506231536 | 67 | 18 | 7.0 | 13.0 | 0.00 | 0.00 | 0.00 | 25 | 1015.7 |
| 20260506230031 | 67 | 1 | 11.0 | 20.0 | 0.00 | 0.00 | 0.00 | 25 | 1015.9 |
| 20260506224531 | 67 | 57 | 8.0 | 18.0 | 0.00 | 0.00 | 0.00 | 24 | 1015.8 |
| 20260506223027 | 66 | 84 | 5.0 | 17.0 | 0.00 | 0.00 | 0.00 | 24 | 1016.0 |
| 20260506221526 | 66 | 360 | 11.0 | 18.0 | 0.00 | 0.00 | 0.00 | 23 | 1015.9 |
| 20260506220024 | 67 | 68 | 10.0 | 17.0 | 0.00 | 0.00 | 0.00 | 25 | 1016.0 |
| 20260506214523 | 66 | 44 | 12.0 | 17.0 | 0.00 | 0.00 | 0.00 | 27 | 1016.2 |
| 20260506213023 | 66 | 24 | 12.0 | 19.0 | 0.00 | 0.00 | 0.00 | 29 | 1016.2 |
| 20260506211521 | 66 | 1 | 10.0 | 19.0 | 0.00 | 0.00 | 0.00 | 30 | 1016.2 |
| 20260506210023 | 66 | 56 | 12.0 | 18.0 | 0.00 | 0.00 | 0.00 | 32 | 1016.1 |
| 20260506204517 | 65 | 356 | 8.0 | 20.0 | 0.00 | 0.00 | 0.00 | 31 | 1016.1 |
| 20260506203016 | 65 | 11 | 13.0 | 21.0 | 0.00 | 0.00 | 0.00 | 31 | 1016.2 |
| 20260506201618 | 65 | 1 | 9.0 | 18.0 | 0.00 | 0.00 | 0.00 | 32 | 1016.2 |
| 20260506200017 | 65 | 33 | 13.0 | 21.0 | 0.00 | 0.00 | 0.00 | 32 | 1016.4 |
| 20260506194512 | 65 | 15 | 12.0 | 20.0 | 0.00 | 0.00 | 0.00 | 34 | 1016.5 |
| 20260506193011 | 64 | 63 | 9.0 | 18.0 | 0.00 | 0.00 | 0.00 | 36 | 1016.4 |
| 20260506191513 | 63 | 341 | 13.0 | 22.0 | 0.00 | 0.00 | 0.00 | 37 | 1016.5 |
| 20260506190007 | 64 | 25 | 9.0 | 18.0 | 0.00 | 0.00 | 0.00 | 39 | 1016.5 |
| 20260506184506 | 63 | 47 | 9.0 | 18.0 | 0.00 | 0.00 | 0.00 | 40 | 1016.7 |
| 20260506183005 | 63 | 38 | 6.0 | 17.0 | 0.00 | 0.00 | 0.00 | 40 | 1016.6 |
| 20260506181503 | 62 | 48 | 11.0 | 20.0 | 0.00 | 0.00 | 0.00 | 41 | 1016.8 |
| 20260506180201 | 62 | 60 | 11.0 | 17.0 | 0.00 | 0.00 | 0.00 | 41 | 1016.5 |
| 20260506174609 | 62 | 56 | 11.0 | 17.0 | 0.00 | 0.00 | 0.00 | 41 | 1016.4 |
| 20260506173058 | 60 | 360 | 7.0 | 15.0 | 0.00 | 0.00 | 0.00 | 43 | 1016.4 |
| 20260506171604 | 61 | 333 | 5.0 | 11.0 | 0.00 | 0.00 | 0.00 | 43 | 1016.3 |
| 20260506170052 | 60 | 48 | 6.0 | 11.0 | 0.00 | 0.00 | 0.00 | 45 | 1016.3 |
| 20260506164554 | 59 | 54 | 7.0 | 11.0 | 0.00 | 0.00 | 0.00 | 44 | 1016.2 |
| 20260506163103 | 59 | 13 | 5.0 | 13.0 | 0.00 | 0.00 | 0.00 | 45 | 1016.1 |
| 20260506161547 | 58 | 349 | 1.0 | 4.0 | 0.00 | 0.00 | 0.00 | 46 | 1016.0 |
| 20260506160045 | 58 | 40 | 1.0 | 7.0 | 0.00 | 0.00 | 0.00 | 46 | 1016.0 |
| 20260506154548 | 57 | 50 | 2.0 | 5.0 | 0.00 | 0.00 | 0.00 | 47 | 1016.0 |
| 20260506153042 | 57 | 219 | 0.0 | 3.0 | 0.00 | 0.00 | 0.00 | 45 | 1016.0 |
| 20260506151543 | 55 | 23 | 0.0 | 2.0 | 0.00 | 0.00 | 0.00 | 47 | 1015.9 |
| 20260506150038 | 54 | 193 | 0.0 | 2.0 | 0.00 | 0.00 | 0.00 | 45 | 1016.1 |
| 20260506144536 | 51 | 294 | 0.0 | 1.0 | 0.00 | 0.00 | 0.00 | 49 | 1015.9 |
| 20260506143035 | 49 | 212 | 0.0 | 1.0 | 0.00 | 0.00 | 0.00 | 52 | 1015.9 |
| 20260506141533 | 48 | 257 | 0.0 | 2.0 | 0.00 | 0.00 | 0.00 | 52 | 1015.7 |
| 20260506140034 | 47 | 222 | 0.0 | 3.0 | 0.00 | 0.00 | 0.00 | 52 | 1015.5 |
| 20260506134528 | 45 | 203 | 0.0 | 2.0 | 0.00 | 0.00 | 0.00 | 55 | 1015.3 |
| 20260506133026 | 42 | 219 | 0.0 | 3.0 | 0.00 | 0.00 | 0.00 | 62 | 1015.1 |
| 20260506131531 | 39 | 236 | 0.0 | 1.0 | 0.00 | 0.00 | 0.00 | 65 | 1014.9 |
| 20260506130022 | 37 | 248 | 0.0 | 1.0 | 0.00 | 0.00 | 0.00 | 66 | 1014.7 |
| 20260506124520 | 38 | 192 | 0.0 | 1.0 | 0.00 | 0.00 | 0.00 | 66 | 1014.3 |
| 20260506123016 | 38 | 223 | 0.0 | 1.0 | 0.00 | 0.00 | 0.00 | 64 | 1013.9 |
| 20260506121512 | 39 | 223 | 0.0 | 1.0 | 0.00 | 0.00 | 0.00 | 63 | 1013.7 |
| 20260506120012 | 40 | 185 | 0.0 | 1.0 | 0.00 | 0.00 | 0.00 | 58 | 1013.7 |
| 20260506114506 | 41 | 214 | 0.0 | 2.0 | 0.00 | 0.00 | 0.00 | 58 | 1013.6 |
| 20260506113003 | 42 | 203 | 0.0 | 2.0 | 0.00 | 0.00 | 0.00 | 57 | 1013.5 |
| 20260506111601 | 44 | 194 | 1.0 | 2.0 | 0.00 | 0.00 | 0.00 | 54 | 1013.4 |
| 20260506110103 | 45 | 235 | 0.0 | 2.0 | 0.00 | 0.00 | 0.00 | 52 | 1013.3 |
| 20260506104557 | 46 | 250 | 1.0 | 4.0 | 0.00 | 0.00 | 0.00 | 50 | 1013.1 |
| 20260506103054 | 46 | 207 | 1.0 | 3.0 | 0.00 | 0.00 | 0.00 | 50 | 1012.8 |
| 20260506101608 | 46 | 193 | 0.0 | 4.0 | 0.00 | 0.00 | 0.00 | 51 | 1012.8 |
| 20260506100046 | 46 | 221 | 1.0 | 6.0 | 0.00 | 0.00 | 0.00 | 50 | 1012.5 |
| 20260506094546 | 46 | 207 | 2.0 | 4.0 | 0.00 | 0.00 | 0.00 | 49 | 1012.5 |
| 20260506093044 | 47 | 217 | 3.0 | 7.0 | 0.00 | 0.00 | 0.00 | 48 | 1012.5 |
| 20260506091540 | 48 | 172 | 3.0 | 8.0 | 0.00 | 0.00 | 0.00 | 47 | 1012.3 |
| 20260506090037 | 48 | 204 | 3.0 | 8.0 | 0.00 | 0.00 | 0.00 | 46 | 1012.3 |
| 20260506084542 | 47 | 316 | 0.0 | 1.0 | 0.00 | 0.00 | 0.00 | 46 | 1012.1 |
| 20260506083033 | 48 | 31 | 0.0 | 1.0 | 0.00 | 0.00 | 0.00 | 46 | 1012.0 |
| 20260506081528 | 49 | 253 | 1.0 | 4.0 | 0.00 | 0.00 | 0.00 | 44 | 1011.9 |
| 20260506073024 | 49 | 278 | 0.0 | 2.0 | 0.00 | 0.00 | 0.00 | 43 | 1011.6 |
| 20260506071520 | 50 | 140 | 2.0 | 4.0 | 0.00 | 0.00 | 0.00 | 41 | 1011.5 |
| 20260506061507 | 53 | 205 | 8.0 | 12.0 | 0.00 | 0.00 | 0.00 | 37 | 1011.0 |
| 20260506050116 | 53 | 201 | 5.0 | 9.0 | 0.00 | 0.00 | 0.00 | 34 | 1010.8 |
| 20260506044557 | 53 | 272 | 3.0 | 8.0 | 0.00 | 0.00 | 0.00 | 34 | 1010.7 |
| 20260506043058 | 52 | 214 | 3.0 | 6.0 | 0.00 | 0.00 | 0.00 | 37 | 1010.5 |
| 20260506041602 | 52 | 226 | 4.0 | 7.0 | 0.00 | 0.00 | 0.00 | 37 | 1010.3 |
| 20260506040052 | 52 | 172 | 3.0 | 7.0 | 0.00 | 0.00 | 0.00 | 39 | 1010.2 |
| 20260506034553 | 53 | 173 | 3.0 | 4.0 | 0.00 | 0.00 | 0.00 | 39 | 1009.9 |
| 20260506033047 | 54 | 158 | 1.0 | 4.0 | 0.00 | 0.00 | 0.00 | 37 | 1009.7 |
| 20260506031546 | 55 | 193 | 1.0 | 7.0 | 0.00 | 0.00 | 0.00 | 36 | 1009.4 |
| 20260506030045 | 56 | 226 | 1.0 | 4.0 | 0.00 | 0.00 | 0.00 | 36 | 1009.2 |